Total_Precipitation_Accumulation
0.00 0.00 0.00 0.00 0.00 0.00 0.00 0.00 0.00 0.00 0.00 0.00 0.00 0.00 0.00 0.00 0.00 0.00 0.00 0.00 0.00 0.00 0.00 0.00 0.00 0.00 0.00 0.00 0.00 0.00 0.00 0.00 0.00 0.04 0.14 0.16 0.15 0.15 0.16 0.20 0.32 0.48 0.59 0.64
0.00 0.00 0.00 0.00 0.00 0.00 0.00 0.00 0.00 0.00 0.00 0.00 0.00 0.00 0.00 0.00 0.00 0.00 0.00 0.00 0.00 0.00 0.00 0.00 0.00 0.00 0.00 0.00 0.00 0.00 0.00 0.00 0.01 0.00 0.04 0.13 0.18 0.17 0.10 0.09 0.22 0.35 0.30 0.43
0.00 0.00 0.00 0.00 0.00 0.00 0.00 0.00 0.00 0.00 0.00 0.00 0.00 0.00 0.00 0.00 0.00 0.00 0.00 0.00 0.00 0.00 0.00 0.00 0.00 0.00 0.00 0.00 0.00 0.00 0.00 0.00 0.02 0.01 0.09 0.19 0.17 0.18 0.19 0.19 0.09 0.07 0.20 0.21
0.00 0.00 0.00 0.00 0.00 0.00 0.00 0.00 0.00 0.00 0.00 0.00 0.00 0.01 0.00 0.00 0.00 0.00 0.00 0.00 0.00 0.00 0.00 0.00 0.00 0.00 0.00 0.00 0.00 0.00 0.00 0.00 0.04 0.15 0.32 0.28 0.23 0.25 0.11 0.05 0.09 0.11 0.24 0.28
0.00 0.00 0.00 0.00 0.00 0.00 0.00 0.00 0.00 0.00 0.00 0.00 0.00 0.00 0.00 0.00 0.04 0.04 0.03 0.02 0.01 0.01 0.02 0.01 0.01 0.01 0.00 0.00 0.00 0.00 0.00 0.00 0.01 0.09 0.41 0.48 0.42 0.21 0.13 0.16 0.28 0.28 0.25 0.37
0.00 0.00 0.00 0.00 0.00 0.00 0.00 0.00 0.00 0.00 0.00 0.00 0.00 0.01 0.01 0.15 0.32 0.22 0.15 0.10 0.07 0.06 0.05 0.04 0.04 0.04 0.03 0.04 0.04 0.01 0.01 0.00 0.00 0.01 0.13 0.42 0.81 1.21 1.41 1.18 0.78 0.54 0.51 0.59
0.00 0.00 0.00 0.00 0.00 0.00 0.00 0.00 0.00 0.00 0.00 0.00 0.00 0.01 0.07 0.13 0.21 0.21 0.22 0.18 0.16 0.12 0.10 0.09 0.08 0.07 0.07 0.09 0.13 0.14 0.07 0.04 0.02 0.03 0.07 0.17 0.32 0.62 1.13 1.80 2.51 2.41 1.92 1.72
0.00 0.00 0.00 0.00 0.00 0.00 0.00 0.00 0.00 0.00 0.00 0.00 0.01 0.12 0.21 0.27 0.25 0.28 0.59 0.41 0.31 0.23 0.16 0.12 0.13 0.12 0.12 0.14 0.17 0.22 0.22 0.21 0.13 0.09 0.13 0.22 0.22 0.27 0.55 0.72 1.07 1.95 2.58 2.28
0.01 0.00 0.00 0.00 0.00 0.00 0.00 0.00 0.00 0.01 0.01 0.02 0.13 0.29 0.25 0.14 0.21 0.29 0.38 0.37 0.57 0.57 0.33 0.19 0.18 0.24 0.32 0.27 0.24 0.36 0.41 0.52 0.44 0.30 0.22 0.25 0.29 0.24 0.28 0.38 0.75 1.03 1.02 1.29
0.02 0.03 0.00 0.00 0.00 0.00 0.00 0.00 0.02 0.06 0.06 0.08 0.16 0.21 0.16 0.07 0.11 0.22 0.38 0.65 0.50 0.60 0.55 0.31 0.26 0.33 0.33 0.43 0.30 0.41 0.67 0.97 0.71 0.63 0.53 0.49 0.47 0.34 0.35 0.24 0.36 0.63 1.08 1.14
0.01 0.05 0.00 0.00 0.00 0.01 0.03 0.02 0.02 0.05 0.06 0.09 0.09 0.15 0.12 0.13 0.16 0.25 0.41 0.62 0.89 0.65 0.95 0.76 0.48 0.45 0.60 0.78 0.35 0.43 0.78 1.55 1.37 0.96 0.80 0.82 0.59 0.73 0.50 0.41 0.39 0.50 0.61 0.87
0.01 0.05 0.02 0.00 0.00 0.00 0.02 0.04 0.06 0.18 0.10 0.12 0.19 0.20 0.12 0.14 0.16 0.15 0.17 0.26 0.36 0.60 0.75 1.10 0.91 0.76 0.77 0.42 0.45 0.43 0.48 0.57 1.58 1.53 1.26 1.08 1.12 1.31 0.82 0.72 0.60 0.64 0.70 0.64
0.05 0.06 0.02 0.03 0.04 0.02 0.05 0.07 0.11 0.16 0.20 0.16 0.17 0.18 0.12 0.11 0.11 0.12 0.14 0.16 0.21 0.25 0.44 0.77 0.76 0.82 0.97 0.56 0.60 0.59 0.64 0.47 0.62 0.91 1.31 1.06 0.92 1.17 1.47 1.28 1.17 0.88 0.80 0.77
0.09 0.07 0.04 0.17 0.15 0.07 0.03 0.03 0.06 0.18 0.35 0.27 0.17 0.13 0.09 0.08 0.09 0.10 0.13 0.16 0.20 0.22 0.20 0.27 0.48 0.58 0.88 0.90 0.60 0.61 0.71 0.71 0.51 0.61 0.50 1.14 1.09 0.39 0.55 1.07 0.87 0.68 0.56 0.71
0.05 0.10 0.16 0.09 0.05 0.09 0.15 0.13 0.06 0.08 0.17 0.24 0.16 0.09 0.11 0.12 0.11 0.12 0.16 0.20 0.14 0.07 0.05 0.03 0.03 0.10 0.29 0.42 0.37 0.38 0.27 0.31 0.43 0.44 0.38 0.24 0.38 0.29 0.10 0.11 0.27 0.26 0.19 0.33
0.05 0.08 0.12 0.14 0.06 0.12 0.20 0.15 0.13 0.07 0.08 0.08 0.08 0.10 0.11 0.11 0.14 0.17 0.18 0.18 0.13 0.03 0.01 0.01 0.01 0.01 0.01 0.03 0.06 0.08 0.10 0.04 0.04 0.05 0.11 0.16 0.08 0.08 0.07 0.04 0.04 0.04 0.02 0.04
0.09 0.14 0.14 0.17 0.06 0.14 0.19 0.19 0.14 0.05 0.04 0.04 0.05 0.06 0.09 0.11 0.12 0.14 0.14 0.11 0.07 0.03 0.01 0.01 0.02 0.02 0.02 0.01 0.01 0.01 0.01 0.01 0.02 0.02 0.01 0.01 0.02 0.02 0.03 0.02 0.01 0.03 0.02 0.00
0.05 0.13 0.23 0.24 0.16 0.24 0.10 0.10 0.11 0.07 0.04 0.02 0.02 0.04 0.05 0.06 0.07 0.06 0.04 0.02 0.01 0.01 0.00 0.01 0.01 0.01 0.01 0.01 0.00 0.00 0.00 0.00 0.00 0.00 0.00 0.00 0.00 0.00 0.00 0.00 0.00 0.00 0.00 0.00
0.06 0.15 0.27 0.24 0.18 0.11 0.06 0.02 0.04 0.06 0.04 0.02 0.02 0.03 0.03 0.04 0.02 0.01 0.00 0.01 0.01 0.00 0.00 0.00 0.01 0.01 0.00 0.00 0.00 0.00 0.00 0.00 0.00 0.00 0.00 0.00 0.00 0.00 0.00 0.00 0.00 0.00 0.00 0.00
0.08 0.12 0.26 0.13 0.16 0.15 0.03 0.01 0.00 0.01 0.03 0.00 0.00 0.01 0.01 0.02 0.03 0.01 0.01 0.00 0.00 0.00 0.00 0.00 0.00 0.00 0.00 0.00 0.00 0.00 0.00 0.00 0.01 0.00 0.01 0.00 0.00 0.00 0.01 0.01 0.01 0.01 0.01 0.01
0.11 0.26 0.33 0.16 0.16 0.09 0.00 0.00 0.00 0.05 0.06 0.00 0.00 0.00 0.00 0.00 0.01 0.01 0.00 0.00 0.00 0.00 0.00 0.00 0.00 0.00 0.00 0.00 0.00 0.00 0.00 0.01 0.01 0.00 0.00 0.00 0.00 0.01 0.01 0.00 0.01 0.01 0.01 0.01
0.03 0.08 0.14 0.18 0.16 0.10 0.01 0.02 0.02 0.02 0.01 0.00 0.00 0.00 0.00 0.00 0.00 0.00 0.00 0.00 0.00 0.00 0.00 0.00 0.00 0.00 0.00 0.00 0.00 0.00 0.01 0.00 0.00 0.00 0.00 0.00 0.00 0.00 0.00 0.00 0.00 0.00 0.00 0.00
0.01 0.00 0.03 0.04 0.05 0.01 0.01 0.01 0.00 0.00 0.00 0.00 0.00 0.00 0.00 0.00 0.00 0.00 0.00 0.00 0.00 0.00 0.00 0.00 0.00 0.00 0.00 0.00 0.00 0.00 0.00 0.00 0.00 0.00 0.00 0.00 0.00 0.00 0.00 0.00 0.00 0.00 0.00 0.00
0.00 0.00 0.00 0.00 0.01 0.00 0.00 0.00 0.00 0.00 0.00 0.00 0.00 0.00 0.00 0.00 0.00 0.00 0.00 0.00 0.01 0.00 0.00 0.00 0.00 0.00 0.00 0.00 0.00 0.00 0.00 0.00 0.00 0.00 0.00 0.00 0.00 0.00 0.00 0.00 0.00 0.00 0.01 0.01
0.01 0.00 0.00 0.01 0.01 0.00 0.00 0.00 0.00 0.00 0.00 0.00 0.00 0.00 0.00 0.00 0.00 0.00 0.00 0.02 0.02 0.00 0.00 0.00 0.00 0.00 0.00 0.00 0.00 0.00 0.00 0.00 0.00 0.00 0.00 0.00 0.00 0.00 0.00 0.00 0.00 0.01 0.05 0.03
0.00 0.00 0.00 0.00 0.00 0.00 0.00 0.00 0.00 0.00 0.00 0.00 0.00 0.00 0.00 0.00 0.00 0.01 0.02 0.02 0.02 0.01 0.01 0.00 0.00 0.00 0.00 0.00 0.00 0.00 0.00 0.00 0.00 0.00 0.00 0.00 0.00 0.00 0.00 0.00 0.00 0.00 0.00 0.01